Flag Weather past 2 weeks in Houmt Souk (Djerba), Tunisia

Now
79 °F

Sunny.


Feels Like: 79 °F
Forecast: 67 / 81 °F
Wind: 13 mph from Southwest

Location: Djerba Mellita

Current Time: Nov 28, 2014 at 12:29:08 PM

Latest Report: Nov 28, 2014 at 12:00 PM


Visibility: 10 mi

Pressure: 29.71 "Hg

Humidity: 32%

Dew point: 46 °F

Location of Houmt Souk (Djerba)Location

Historic Weather in Houmt Souk (Djerba) — Graph

°F

Houmt Souk (Djerba) temperature yesterday

Maximum temperature yesterday: 79 °F (at 1:00 PM)
Minimum temperature yesterday: 63 °F (at 7:30 AM)
Average temperature yesterday: 69 °F

Past Weeks' High & Low Weather Summary

 TemperatureHumidityPressure
High82 °F (Nov 21, 2:30 PM)100% (Nov 17, 7:00 AM)30.24 "Hg (Nov 17, 7:00 AM)
Low55 °F (Nov 19, 4:30 AM)23% (Nov 21, 2:30 PM)29.71 "Hg (Nov 28, 4:00 AM)
Average68 °F73%30.02 "Hg
* Reported Nov 13 11:00 AM — Nov 28 11:30 AM, Houmt Souk (Djerba), Weather by CustomWeather, © 2014

Note: Actual official high and low records may vary slightly from our data, if they occured in-between our weather recording intervals... More about our weather records

Advertising

Houmt Souk (Djerba) weather history for previous 24 hours

 ConditionsComfort  
Time TempWeatherWind HumidityBarometerVisibility
11:30 AM
Nov 28
75 °FPassing clouds.12 mph44%29.74 "HgN/A
11:00 AM75 °FPassing clouds.9 mph44%29.74 "HgN/A
10:30 AM72 °FPassing clouds.10 mph50%29.74 "HgN/A
10:00 AM72 °FPassing clouds.7 mph50%29.74 "Hg5 mi
9:30 AM66 °FScattered clouds.6 mph64%29.74 "Hg5 mi
9:00 AM64 °FScattered clouds.3 mph68%29.74 "Hg5 mi
8:30 AM63 °FScattered clouds.3 mph73%29.74 "Hg5 mi
7:30 AM61 °FScattered clouds.8 mph77%29.71 "Hg5 mi
5:30 AM61 °FClear.7 mph72%29.71 "Hg10 mi
5:00 AM59 °FClear.6 mph82%29.71 "Hg10 mi
4:00 AM61 °FClear.6 mph77%29.71 "Hg5 mi
3:30 AM61 °FClear.6 mph83%29.74 "Hg10 mi
3:00 AM61 °FClear.5 mph88%29.74 "Hg5 mi
2:30 AM59 °FClear.6 mph94%29.74 "Hg10 mi
1:30 AM63 °FClear.3 mph88%29.74 "Hg4 mi
1:00 AM63 °FClear.5 mph88%29.74 "Hg4 mi
12:30 AM63 °FClear.3 mph88%29.77 "Hg5 mi
12:00 AM63 °FClear.6 mph88%29.77 "Hg5 mi
11:00 PM
Nov 27
64 °FClear.6 mph88%29.77 "Hg10 mi
10:30 PM66 °FClear.7 mph83%29.77 "Hg10 mi
10:00 PM66 °FClear.6 mph83%29.77 "Hg10 mi
9:30 PM68 °FClear.7 mph78%29.77 "Hg10 mi
9:00 PM66 °FClear.6 mph78%29.77 "Hg10 mi
8:30 PM64 °FClear.5 mph73%29.77 "Hg10 mi
8:00 PM66 °FClear.5 mph68%29.77 "Hg10 mi
7:30 PM66 °FClear.5 mph68%29.80 "Hg10 mi
7:00 PM68 °FClear.3 mph64%29.77 "Hg10 mi
6:30 PM68 °FClear.6 mph64%29.80 "Hg10 mi
6:00 PM70 °FClear.7 mph60%29.77 "Hg10 mi
5:30 PM72 °FClear.5 mph57%29.77 "Hg10 mi
5:00 PM73 °FSunny.3 mph50%29.77 "Hg10 mi
4:30 PM75 °FSunny.6 mph47%29.77 "Hg10 mi
4:00 PM75 °FSunny.6 mph47%29.77 "Hg10 mi
3:30 PM77 °FSunny.6 mph36%29.77 "Hg10 mi
3:00 PM77 °FPassing clouds.3 mph30%29.77 "HgN/A
2:30 PM77 °FSunny.3 mph30%29.77 "Hg10 mi
2:00 PM77 °FSunny.5 mph30%29.80 "Hg10 mi
1:30 PM77 °FPassing clouds.3 mph34%29.80 "HgN/A
1:00 PM79 °FPassing clouds.3 mph32%29.80 "HgN/A
12:30 PM77 °FPassing clouds.3 mph44%29.83 "HgN/A
12:00 PM75 °FPassing clouds.5 mph44%29.83 "HgN/A
Weather by CustomWeather, © 2014

See weather overviewHow to use our weather pages